STARLINK-31745 (60329 NORAD) Tracking and Keplerian Element Data

This shows tracking and keplerian element data for the satellite.

Feedback or suggestion? Click here.




ElementValue
Catalog60329
NameSTARLINK-31745
Epoch Orbit1233
Epoch Day286.7306716
Epoch Year2024
RAAN298.6357
Inclination53.1613
Eccentricity0.000127
Argument of Perigee117.1792
Mean Anonmoly242.9338
Mean Motion15.30192335
Decay Rate-2.899E-05
L11 60329U 24136A 24286.73067160 -.00002899 00000+0 -85806-4 0 9998
L22 60329 53.1613 298.6357 0001270 117.1792 242.9338 15.30192335 12331



Live tracking and technical data element details for STARLINK-31745 (NORAD 60329). STARLINK-31745 can be tracked NOW for your location showing map with azimuth and elevation plus other details from your city location.







IsCatalogInMostPopularTable: catalog: 60329, numindb: 7
Update: records affected: 1



GetName: 60329 STARLINK-31745

Hit Count: updated at: Tue, 03 Dec 2024 03:10:57 GMT